Regional Weather Roundup
Issued by NWS

Home | Current Version | Previous Version | Graphics & Text | Print | Product List | Glossary On
Versions: 1 2 3 4 5 6 7 8 9 10 11 12 13 14 15 16 17 18 19 20 21 22 23 24 25 26 27 28 29 30 31 32 33 34 35 36 37 38 39 40 41 42 43 44 45 46 47 48 49 50
000
ASUS45 KTFX 261619
RWRMT
MONTANA HOURLY WEATHER ROUNDUP
NATIONAL WEATHER SERVICE GREAT FALLS MT
919 AM MST WED NOV 26 2014

NOTE: "FAIR" INDICATES FEW OR NO CLOUDS BELOW 12000 FEET WITH NO
SIGNIFICANT WEATHER AND/OR OBSTRUCTIONS TO VISIBILITY.

* THESE STATIONS ARE NOT UNDER NWS QUALITY CONTROL. THEY DO NOT
   REPORT WEATHER SUCH AS PRECIPITATION OR FOG.

MTZ001>007-043-261700-
WEST OF THE DIVIDE
CITY           SKY/WX    TMP DP  RH WIND       PRES   REMARKS
KALISPELL      LGT SNOW  30  30 100 CALM      30.15R VSB 1/2
MISSOULA       FOG       32  32 100 CALM      30.17R VSB 1/2
BUTTE          CLOUDY    28  27  96 CALM      30.11R
MULLAN PASS    LGT RAIN  34  32  92 NW7       30.10R VSB M1/4 WCI  28
* ESSEX        N/A       29  27  92 N/A        N/A
* EUREKA APT   PTSUNNY   32  30  92 CALM      30.16S VSB 3
* LIBBY APT    PTSUNNY   32  30  92 CALM      30.15R VSB 2 1/2
* LINCOLN      N/A       28  27  96 S3         N/A
* LOOKOUT PASS N/A       36  35  96 NE5G10     N/A   WCI  32
* POLSON       N/A       30  30 100 N/A        N/A
* RONAN APT    CLOUDY    30  30 100 N/A        N/A
* SEELEY LAKE  N/A       29  28  96 N/A        N/A
* THOMP F APT  CLOUDY    26  25  96 NE1G6      N/A
* YAAK HILL    N/A       32  30  92 N/A        N/A
$$

MTZ008-052>055-261700-
SOUTHWEST MONTANA
CITY           SKY/WX    TMP DP  RH WIND       PRES   REMARKS
BOZEMAN        PTSUNNY   27  27 100 CALM      30.14R
DILLON         PTCLDY    45  30  56 SW20G31   30.12R
* W YELLOWSTON PTSUNNY   35  32  89 SW7G15     N/A   WCI  29
* ENNIS APT    PTCLDY    43  30  60 SE9        N/A
* THREE FORKS  PTCLDY    27   5  39 N/A        N/A
* BOULDER HILL N/A       25  23  92 S11        N/A   WCI  14
* MONIDA PASS  N/A       27  27 100 SE12       N/A   WCI  16
* RAYNOLDS PAS N/A       40  32  73 SW12G17    N/A   WCI  33
* WHITEHALL    N/A       28  27  96 N/A        N/A
* WISE RIVER   N/A       41  31  68 NW14G20    N/A
$$

MTZ009>010-012-014-046-048-049-054-261700-
EAST SLOPES AND CENTRAL MONTANA
CITY           SKY/WX    TMP DP  RH WIND       PRES   REMARKS
CUT BANK       FOG       27  25  92 SE8       30.11S WCI  19
GREAT FALLS    LGT SNOW  30  28  92 CALM      30.13S VSB 3/4
HELENA         LGT SNOW  30  28  92 CALM      30.13R VSB 1
MALMSTROM AFB  LGT SNOW  28  30 N/A NE3       30.16S VSB 1 3/4
* CONRAD       CLOUDY    27  27 100 CALM       N/A
* DEARBORN     N/A       31  30  96 N/A        N/A
* EAST GLACIER N/A       24  23  96 S5         N/A   WCI  18
* MONARCH      N/A       24  21  88 N/A        N/A
* PENDROY      N/A       27  27 100 SW2        N/A
* ROGERS PASS  N/A       27  23  85 VRB2       N/A
* SAINT MARY   N/A       25  22  88 S2         N/A
* SWEET GRASS  N/A       26  26 100 S12        N/A   WCI  15
* WHITE SULPH  N/A       27  25  92 NE2        N/A
$$

MTZ011-013-016-021-035-040-045-047-050-051-261700-
NORTH CENTRAL MONTANA
CITY           SKY/WX    TMP DP  RH WIND       PRES   REMARKS
HAVRE          LGT SNOW  28  25  89 E8        30.22R VSB 2 1/2 WCI  20
LEWISTOWN      LGT SNOW  28  25  89 E6        30.14S VSB 1 1/2 WCI  21
* N BAR RANCH  FOG       25  23  92 E6        30.15R VSB 3    WCI  18
* CHINOOK      PTSUNNY   27  27 100 E3        30.24R VSB 1 3/4
* FORT BENTON  CLOUDY    30  28  92 NE6       30.20R WCI  24
* MALTA APT    CLOUDY    27  21  78 N/A        N/A
* CHESTER      N/A       27  25  92 SE4        N/A
* DENTON       N/A       28  27  96 E4         N/A
* GEYSER       N/A       26  24  92 NE2        N/A
* JUDITH GAP   N/A       24  24 100 SE5        N/A   WCI  18
* LOMA         N/A       29  29 100 NE6        N/A   WCI  23
$$

MTZ017>020-022>027-061-062-261700-
NORTHEAST MONTANA
CITY           SKY/WX    TMP DP  RH WIND       PRES   REMARKS
GLASGOW        CLOUDY    21  18  88 SE9       30.27R WCI  11
GLENDIVE       CLOUDY    18  16  92 NE12      30.30R WCI   5
JORDAN         CLOUDY    25  23  92 E6        30.23S WCI  18
SIDNEY         PTSUNNY   16   9  74 N7        30.36R WCI   6
WOLF POINT     LGT SNOW  19  14  81 E7        30.33R WCI  10
* BEAVER HILL  N/A       18  16  92 VRB5       N/A   WCI  11
* CIRCLE       N/A       22  19  88 NE8        N/A   WCI  13
* LINDSAY DVD  N/A       19  17  92 N2         N/A
* NAVAJO       N/A        8   5  87 NE6G12     N/A   WCI  -2
* PLENTYWOOD A PTCLDY     7   1  76 N7        30.33R WCI  -5
* POPLAR APT   PTCLDY    14  10  84 N/A       30.34R
* SACO         N/A       23  19  85 E9         N/A   WCI  13
* SCOBEY APT   SUNNY     10   1  67 NW6        N/A
$$

MTZ028>042-056>058-261700-
SOUTHCENTRAL AND SOUTHEAST MONTANA
CITY           SKY/WX    TMP DP  RH WIND       PRES   REMARKS
BAKER          LGT SNOW  25  21  85 N10       30.24R VSB 1    WCI  15
BILLINGS       LGT SNOW  28  27  96 S3        30.19R VSB 3/4
LIVINGSTON     CLOUDY    27  25  92 CALM      30.12S
MILES CITY     LGT SNOW  27  25  92 NE7       30.24R VSB 2 1/2 WCI  19
* BIG TIMBER A CLOUDY    27  25  92 CALM      30.15R VSB 1/2
* FORSYTH APT  CLOUDY    28  28 100 CALM      30.24R VSB 1 3/4
* LAUREL APT   CLOUDY    28  21  75 N/A        N/A
* ALZADA       N/A       28  25  89 W3         N/A
* HYSHAM       N/A       28  26  92 W6         N/A   WCI  21
* LAME DEER    N/A       25  24  96 W6         N/A   WCI  18
* REED POINT   N/A       28  27  96 E1         N/A
* ROSCOE HILL  N/A       24  21  88 N/A        N/A
$$

REGIONAL REPORTS...DAKOTAS
CITY           SKY/WX    TMP DP  RH WIND       PRES   REMARKS
WILLISTON      CLOUDY    10   3  73 N9        30.34R WCI  -3
DICKINSON      CLOUDY    18  14  84 NE5       30.24R WCI  11
BEACH          LGT SNOW  18  18 100 N8        30.27R VSB 3    WCI   8
CROSBY         PTCLDY    -2  -6  83 N6        30.37R WCI -14
TIOGA          PTSUNNY    5   3  91 N5        30.34R WCI  -5
BISMARCK       LGT SNOW   9   1  70 E6        30.36R WCI  -1
GRAND FORKS    CLOUDY     0  -8  68 N15       30.44R WCI -19
FARGO          CLOUDY     3  -2  79 N16       30.37R WCI -16
BUFFALO SD     CLOUDY    27  21  78 SW7       30.15R WCI  19
RAPID CITY     CLOUDY    25  21  85 SE6       30.24R WCI  18
$$

REGIONAL REPORTS...WYOMING/IDAHO/WASHINGTON
CITY           SKY/WX    TMP DP  RH WIND       PRES   REMARKS
GILLETTE       LGT SNOW  27  23  85 W5        30.18R VSB 2 1/2 WCI  21
SHERIDAN       LGT SNOW  28  25  89 CALM      30.18S VSB 1
CODY           CLOUDY    23  21  92 CALM      30.14R
YELLOWSTONE LA CLOUDY    32  28  85 W7        30.17R WCI  25
SALMON         CLOUDY    30  30 100 CALM      30.22R VSB M1/4
MULLAN PASS    LGT RAIN  34  32  92 NW7       30.10S VSB M1/4 WCI  28
SAND POINT     FOG       32  32 100 CALM      30.17R
SPOKANE        FOG       36  34  92 S6        30.14S VSB M1/4 WCI  31
$$

REGIONAL REPORTS...ALBERTA
CITY           SKY/WX    TMP DP  RH WIND       PRES   REMARKS
CALGARY        FOG       23  21  92 S8        30.10S VSB 1 1/2 WCI  14
LETHBRIDGE     CLOUDY    28  27  96 SE8       30.12S WCI  20
MEDICINE HAT   CLOUDY    23  23 100 NE3       30.21R
EDMONTON       PTSUNNY   12   9  88 SE7       30.17R WCI   1
WATERTON GATE  N/A       30  23  75 S9         N/A   WCI  22
CARDSTON       N/A       30  27  89 S5         N/A   WCI  25
MILK RIVER     N/A       28  27  96 S8         N/A   WCI  20
$$

REGIONAL REPORTS...SASKATCHEWAN
CITY           SKY/WX    TMP DP  RH WIND       PRES   REMARKS
SWIFT CURRENT  LGT SNOW  10   9  96 SE10      30.24S WCI  -4
MOOSE JAW      PTCLDY     0  -6  75 E6        30.38R WCI -12
REGINA         SUNNY     -9 -13  82 VRB2      30.39R
VAL MARIE      N/A       21  19  92 SE5        N/A   WCI  14
ASSINIBOIA     N/A        7   3  83 E7         N/A   WCI  -5
CORONACH       N/A        9   5  84 SE8        N/A   WCI  -3

$$



USA.gov is the U.S. government's official web portal to all federal, state and local government web resources and services.